Regional Weather Roundup
Issued by NWS

Home | Current Version | Previous Version | Graphics & Text | Print | Product List | Glossary Off
Versions: 1 2 3 4 5 6 7 8 9 10 11 12 13 14 15 16 17 18 19 20 21 22 23 24 25 26 27 28 29 30 31 32 33 34 35 36 37 38 39

000
ASUS43 KDMX 260907
RWRIA

WEATHER ROUNDUP FOR IOWA
NATIONAL WEATHER SERVICE DES MOINES IA
300 AM CST FRI DEC 26 2014

NOTE: "FAIR" INDICATES FEW OR NO CLOUDS BELOW 12,000 FEET WITH NO
SIGNIFICANT WEATHER AND/OR OBSTRUCTIONS TO VISIBILITY.

* - THESE STATIONS ARE NOT NWS STATIONS...THUS NOT UNDER NWS
QUALITY CONTROL.  THEY ALSO DO NOT REPORT WEATHER SUCH
AS PRECIPITATION OR FOG.

IAZ001>003-012>014-020>022-031>034-043>046-261000-
   NORTHWEST IOWA

CITY           SKY/WX    TMP DP  RH WIND       PRES   REMARKS
CARROLL *      CLEAR     30  28  93 NW8       29.79R WCI  23
CHEROKEE *     CLOUDY    32  32 100 N13G20    29.84R WCI  22
DENISON *      PTCLDY    27  27 100 N5        29.80R WCI  21
LE MARS *      CLOUDY    32  32 100 N14       29.87R WCI  22
ORANGE CITY *  CLOUDY    34  30  86 N9G16     29.85R FOG     WCI  26
SHELDON *      CLOUDY    32  32 100 N15G22    29.84R FOG     WCI  22
SIOUX CITY     CLOUDY    34  31  88 N14       29.87R WCI  25
SPENCER        CLOUDY    33  30  88 N14       29.84R WCI  23
STORM LAKE *   CLOUDY    30  30 100 N18G24    29.81R FOG     WCI  18
$$

IAZ055>058-069>071-079>083-090>094-261000-
   SOUTHWEST IOWA

CITY           SKY/WX    TMP DP  RH WIND       PRES   REMARKS
ATLANTIC *     CLEAR     30  28  93 CALM      29.79R
AUDUBON *      CLEAR     27  21  80 CALM      29.79R
CLARINDA *     CLEAR     36  30  80 S5        29.81R WCI  32
COUNCIL BLFS * CLOUDY    32  32 100 NW12G18   29.80R FOG     WCI  23
CRESTON *      CLEAR     37  32  81 S13       29.80R WCI  29
HARLAN  *      CLEAR     30  30 100 CALM      29.83R
LAMONI         CLEAR     36  30  79 S8        29.82R WCI  30
RED OAK *      CLEAR     36  30  80 W6        29.81R WCI  31
SHENANDOAH *   CLEAR     34  30  86 W5        29.81R WCI  30
$$

IAZ047>049-059>061-072>074-084-261000-
   CENTRAL IOWA

CITY           SKY/WX    TMP DP  RH WIND       PRES   REMARKS
AMES           CLEAR     32  28  85 CALM      29.80R
ANKENY *       CLEAR     37  32  81 S5        29.81R WCI  34
CHARITON *     CLEAR     39  32  75 S14       29.82S WCI  31
DES MOINES     CLEAR     39  30  70 S10       29.81R WCI  32
GRINNELL*      PTCLDY    36  32  87 S10       29.84R WCI  28
KNOXVILLE *    CLEAR     39  30  70 S9        29.81S WCI  33
MARSHALLTOWN   CLEAR     37  30  75 S10       29.81R WCI  30
PELLA *        CLEAR     39  32  75 S10       29.84S WCI  32
PERRY *          N/A     32  32 100 CALM      29.79R
$$

IAZ004>006-015-016-023>025-035-036-261000-
   NORTH CENTRAL IOWA

CITY           SKY/WX    TMP DP  RH WIND       PRES   REMARKS
ALGONA *       CLEAR     28  28 100 N8        29.81S FOG     WCI  20
CLARION *      CLEAR     30  30 100 S7        29.80R WCI  23
ESTHERVILLE    CLOUDY    31  30  96 N15       29.82R FOG     WCI  20
FORT DODGE *   CLEAR     28  25  86 CALM      29.81R
MASON CITY     CLEAR     28  25  88 NW7       29.83R WCI  21
FOREST CITY *  CLEAR     28  27  93 CALM      29.81R
IOWA FALLS *     N/A     32  30  93 SE7       29.81R WCI  26
$$

IAZ007>011-017>019-026>030-037>042-050>054-066-261000-
   NORTHEAST IOWA

CITY           SKY/WX    TMP DP  RH WIND       PRES   REMARKS
CEDAR RAPIDS   MOCLDY    40  33  76 S12       29.85R WCI  33
CHARLES CITY * CLEAR     34  32  93 SE7       29.82R WCI  28
CLINTON *      CLOUDY    43  32  65 SW14      29.92F
DECORAH *      CLEAR     37  32  81 S10       29.82S WCI  30
DUBUQUE        MOCLDY    38  33  82 S10       29.87S WCI  31
MONTICELLO *   CLEAR     39  36  87 S9G15     29.87R WCI  33
OELWEIN *      CLEAR     34  30  86 S10       29.84R WCI  26
WATERLOO       CLEAR     37  31  78 S10       29.82R WCI  30
$$

IAZ064-065-067-068-078-261000-
   EAST CENTRAL IOWA

CITY           SKY/WX    TMP DP  RH WIND       PRES   REMARKS
DAVENPORT      CLOUDY    42  32  67 S16G25    29.90S
IOWA CITY      MOCLDY    41  33  73 S13       29.89R
MT. PLEASANT * MOCLDY    39  32  75 S10       29.91S WCI  32
MUSCATINE *    CLEAR     41  34  75 S12       29.91R
QUAD CITIES    MOCLDY    42  33  70 S17G28    29.90S
$$

IAZ062-063-075>077-085>089-095>099-261000-
   SOUTHEAST IOWA

CITY           SKY/WX    TMP DP  RH WIND       PRES   REMARKS
BURLINGTON     PTCLDY    40  34  79 S16G23    29.93R WCI  31
FAIRFIELD *    CLOUDY    41  32  70 S13G20    29.89R
FORT MADISON * CLEAR     39  36  87 S10       29.94R WCI  32
KEOKUK *       CLEAR     41  34  75 S9        29.93R
OSKALOOSA *      N/A     37  32  81 S14       29.86R WCI  29
CENTERVILLE *    N/A     39  32  75 S9        29.87R WCI  33
OTTUMWA        PTCLDY    39  31  72 S15       29.86R WCI  31
WASHINGTON *   CLEAR     41  36  81 S15       29.88S
$$

ABBREVIATIONS USED IN REMARKS
   TC - TEMPERATURES IN CELSIUS
  WCI - WIND CHILL INDEX
   HX - HEAT INDEX
  VSB - VISIBILITY
$$




USA.gov is the U.S. government's official web portal to all federal, state and local government web resources and services.